Location: Moy Burn
(57.3833°N, 4.0667°W)
Time: 12:12:23
(UTC+00:00)

Cosmos 44 - Pass Details

Date: 08 August 2020
Orbit: 583 x 779 km, 65.1° (Epoch: 22 September)

Event Time Altitude Azimuth Distance (km) Brightness Sun altitude
Rises 21:10:37 0° 306° (NW) 2,961 8.9 -6.8°
Reaches altitude 10° 21:12:54 10° 310° (NW) 2,079 7.6 -7.0°
Maximum altitude 21:17:33 57° 30° (NNE) 812 3.8 -7.5°
Drops below altitude 10° 21:22:30 10° 109° (ESE) 2,199 5.3 -8.0°
Enters shadow 21:23:08 - 111° (ESE) 2,444 5.6 -8.0°
